This is the latest recevied weather packets stored in our database for station/object WX9WTF. If no packets are shown the sender has not sent any weather packets the latest 10 day(s).
| Time | Temp. | Humidity | Pressure | Rain* | Wind** | Luminosity | Snow |
|---|---|---|---|---|---|---|---|
| 1777809784 | 8.33° C | 75% | 1016.4 hPa | 0 mm | - | 45 W/m² | - |
| 1777809481 | 7.78° C | 78% | 1016.3 hPa | 0 mm | - | 33 W/m² | - |
| 1777809179 | 7.22° C | 80% | 1016.3 hPa | 0 mm | - | 29 W/m² | - |
| 1777808876 | 6.67° C | 83% | 1016.3 hPa | 0 mm | - | 24 W/m² | - |
| 1777808573 | 6.11° C | 85% | 1016.2 hPa | 0 mm | - | 20 W/m² | - |
| 1777808270 | 6.11° C | 86% | 1016.3 hPa | 0 mm | - | 6 W/m² | - |
| 1777807969 | 5.56° C | 86% | 1016.2 hPa | 0 mm | - | 11 W/m² | - |
| 1777807661 | 5.56° C | 87% | 1016.1 hPa | 0 mm | - | 8 W/m² | - |
| 1777807358 | 5.56° C | 87% | 1016 hPa | 0 mm | - | 5 W/m² | - |
| 1777807054 | 5° C | 87% | 1016.2 hPa | 0 mm | - | 3 W/m² | - |
| 1777806751 | 5.56° C | 87% | 1016.1 hPa | 0 mm | - | 1 W/m² | - |
| 1777806447 | 5.56° C | 87% | 1016.1 hPa | 0 mm | - | 1 W/m² | - |
| 1777806144 | 5.56° C | 87% | 1016.2 hPa | 0 mm | - | 0 W/m² | - |
| 1777805840 | 5.56° C | 87% | 1016 hPa | 0 mm | - | 0 W/m² | - |
| 1777805537 | 5.56° C | 86% | 1016.2 hPa | 0 mm | - | 0 W/m² | - |
| 1777805234 | 5.56° C | 86% | 1016.2 hPa | 0 mm | - | 0 W/m² | - |
| 1777804933 | 5.56° C | 86% | 1016.3 hPa | 0 mm | - | 0 W/m² | - |
| 1777804630 | 5.56° C | 86% | 1016.4 hPa | 0 mm | - | 0 W/m² | - |
| 1777804328 | 5.56° C | 88% | 1016.4 hPa | 0 mm | - | 0 W/m² | - |
| 1777804024 | 5° C | 89% | 1016.5 hPa | 0 mm | - | 0 W/m² | - |
| 1777803721 | 5° C | 89% | 1016.5 hPa | 0 mm | - | 0 W/m² | - |
| 1777803417 | 5° C | 89% | 1016.6 hPa | 0 mm | - | 0 W/m² | - |
| 1777803115 | 5° C | 89% | 1016.5 hPa | 0 mm | - | 0 W/m² | - |
| 1777802812 | 5° C | 90% | 1016.7 hPa | 0 mm | - | 0 W/m² | - |
| 1777802510 | 5° C | 89% | 1016.8 hPa | 0 mm | - | 0 W/m² | - |
* Rain latest hour (hover to see other rain measurements)
** Current wind speed in m/s (hover to see current wind gust speed)